Morgantown, WV

12:09 AM EST on January 18, 2017 (GMT -0500)
Morgantown Municipal-Hart

Weather History for KMGW - January, 2005

Change the Weather History Date:

Tuesday, January 4, 2005

  Actual Average Record
Temperature  
Mean Temperature 50 °F 31 °F  
Max Temperature 55 °F 39 °F 71 °F (1950)
Min Temperature 44 °F 24 °F -2 °F (1981)
Degree Days  
Heating Degree Days 16 34  
Month to date heating degree days 133  
Since 1 July heating degree days 2117  
Cooling Degree Days 0 0  
Month to date cooling degree days 0  
Year to date cooling degree days 0  
Moisture  
Dew Point 48 °F    
Average Humidity 96    
Maximum Humidity 100    
Minimum Humidity 92    
Precipitation  
Precipitation 0.19 in 0.09 in 1.13 in (1971)
Month to date precipitation 0.36  
Year to date precipitation 0.36  
Sea Level Pressure  
Sea Level Pressure 30.19 in    
Wind  
Wind Speed 6 mph (North)    
Max Wind Speed 13 mph    
Max Gust Speed 16 mph    
Visibility 5 miles    
Events Fog , Rain    
T = Trace of Precipitation, MM = Missing Value Source: NWS Daily Summary

Daily Weather History Graph

Daily Weather History Graph

Search for Another Location

Airport or City:

Trip Planner

Search our weather history database for the weather conditions in past years. The results will help you decide how hot, cold, wet, or windy it might be!

Date:

Astronomy

Jan. 04, 2005 Rise Set
Actual Time 7:40 AM EST 5:09 PM EST
Civil Twilight 7:10 AM EST 5:39 PM EST
Nautical Twilight 6:37 AM EST 6:12 PM EST
Astronomical Twilight 6:04 AM EST 6:45 PM EST
Moon 1:03 AM EST (1/4) 12:25 PM EST (1/4)
Length of Visible Light 10h 28m
Length of Day
9h 28m
Last Quarter, 40% of the Moon is Illuminated
Jan 4
Last Quarter
Jan 10
New
Jan 17
First Quarter
Jan 25
Full
Feb 2
Last Quarter

Hourly Weather History & Observations

Time (EST) Temp. Windchill Dew Point Humidity Pressure Visibility Wind Dir Wind Speed Gust Speed Precip Events Conditions
12:43 AM 55.4 °F - 55.4 °F 100% 30.12 in 8.0 mi SW 12.7 mph 16.1 mph 0.03 in Rain Light Rain
12:53 AM 55.9 °F - 54.0 °F 93% 30.12 in 7.0 mi SW 8.1 mph - 0.03 in Rain Light Rain
1:10 AM 55.4 °F - 53.6 °F 94% 30.11 in 9.0 mi SW 8.1 mph - 0.00 in Rain Light Rain
1:20 AM 55.4 °F - 53.6 °F 94% 30.11 in 6.0 mi SW 6.9 mph - 0.00 in Rain Light Rain
1:53 AM 55.9 °F - 54.0 °F 93% 30.11 in 7.0 mi SSW 9.2 mph - 0.02 in Rain Light Rain
2:53 AM 55.9 °F - 55.0 °F 97% 30.12 in 10.0 mi SW 5.8 mph - 0.02 in Rain Light Rain
3:53 AM 55.9 °F - 55.0 °F 97% 30.12 in 9.0 mi SW 6.9 mph - 0.01 in   Overcast
4:53 AM 55.9 °F - 55.0 °F 97% 30.13 in 4.0 mi SSW 6.9 mph - 0.00 in Rain Light Rain
5:08 AM 55.4 °F - 55.4 °F 100% 30.13 in 4.0 mi SW 6.9 mph - 0.00 in Rain Light Rain
5:53 AM 55.9 °F - 55.0 °F 97% 30.14 in 4.0 mi SW 5.8 mph - 0.01 in   Overcast
6:27 AM 55.4 °F - 55.4 °F 100% 30.16 in 5.0 mi SW 6.9 mph - 0.00 in Rain Light Rain
6:39 AM 55.4 °F - 55.4 °F 100% 30.17 in 4.0 mi WSW 5.8 mph - 0.01 in Rain Light Rain
6:53 AM 54.0 °F - 53.1 °F 97% 30.18 in 6.0 mi NNW 9.2 mph - 0.03 in Rain Light Rain
7:53 AM 51.1 °F - 48.9 °F 92% 30.21 in 10.0 mi North 9.2 mph - 0.00 in Rain Light Rain
8:18 AM 48.2 °F - 48.2 °F 100% 30.22 in 8.0 mi North 6.9 mph - 0.01 in   Overcast
8:53 AM 48.0 °F - 46.9 °F 96% 30.24 in 6.0 mi North 6.9 mph - 0.01 in Rain Light Rain
9:42 AM 46.4 °F 45.2 °F 44.6 °F 93% 30.24 in 4.0 mi NNE 3.5 mph - 0.01 in Rain Light Rain
9:53 AM 46.9 °F - 46.0 °F 97% 30.25 in 10.0 mi North 3.5 mph - 0.01 in   Overcast
10:17 AM 46.4 °F 45.2 °F 44.6 °F 93% 30.25 in 10.0 mi NNE 3.5 mph - N/A   Overcast
10:53 AM 46.9 °F - 46.0 °F 97% 30.25 in 10.0 mi NE 4.6 mph - 0.00 in   Overcast
11:11 AM 46.4 °F 45.2 °F 46.4 °F 100% 30.24 in 6.0 mi North 3.5 mph - 0.00 in Rain Light Rain
11:22 AM 46.4 °F 44.3 °F 44.6 °F 93% 30.24 in 6.0 mi NNE 4.6 mph - 0.00 in   Overcast
11:53 AM 46.9 °F - 45.0 °F 93% 30.24 in 6.0 mi NE 3.5 mph - 0.00 in Rain Light Rain
12:21 PM 46.4 °F 45.2 °F 44.6 °F 93% 30.23 in 9.0 mi NE 3.5 mph - 0.00 in Rain Light Rain
12:53 PM 48.0 °F - 46.0 °F 93% 30.22 in 4.0 mi Calm Calm - 0.01 in Rain Light Rain
1:46 PM - - - N/A% 30.20 in 10.0 mi Calm Calm - 0.00 in   Overcast
1:53 PM - - - N/A% 30.20 in 8.0 mi Calm Calm - 0.00 in   Overcast
2:53 PM 48.0 °F - 46.0 °F 93% 30.20 in 7.0 mi Calm Calm - 0.00 in   Overcast
3:53 PM 46.9 °F - 46.0 °F 97% 30.21 in 4.0 mi NE 3.5 mph - 0.01 in   Overcast
4:07 PM 46.4 °F - 46.4 °F 100% 30.21 in - North - - N/A   Mist
4:53 PM 46.9 °F - 45.0 °F 93% 30.22 in 4.0 mi Calm Calm - N/A   Mist
5:02 PM 46.4 °F 45.2 °F 44.6 °F 93% 30.21 in 4.0 mi NNE 3.5 mph - N/A   Overcast
5:53 PM 46.9 °F - 45.0 °F 93% 30.22 in 3.0 mi Calm Calm - 0.00 in Rain Light Rain
6:12 PM 46.4 °F - 44.6 °F 93% 30.22 in 3.0 mi Calm Calm - 0.00 in   Overcast
6:23 PM 46.4 °F - 44.6 °F 93% 30.21 in 2.0 mi Calm Calm - 0.00 in   Overcast
6:33 PM 46.4 °F - 44.6 °F 93% 30.21 in 1.0 mi Calm Calm - 0.00 in   Overcast
6:53 PM 46.9 °F - 45.0 °F 93% 30.22 in 2.0 mi North 3.5 mph - 0.00 in   Overcast
7:04 PM 46.4 °F 44.3 °F 44.6 °F 93% 30.22 in 1.5 mi North 4.6 mph - 0.00 in Rain Light Rain
7:45 PM 46.4 °F - 44.6 °F 93% 30.21 in 0.8 mi Calm Calm - 0.01 in   Mist
7:53 PM 46.0 °F 44.8 °F 45.0 °F 96% 30.22 in 0.8 mi North 3.5 mph - 0.01 in   Mist
8:00 PM 46.4 °F - 44.6 °F 93% 30.21 in 1.0 mi Calm Calm - N/A   Mist
8:32 PM 46.4 °F 45.2 °F 44.6 °F 93% 30.21 in 0.8 mi NNE 3.5 mph - 0.00 in   Mist
8:53 PM 46.0 °F 43.9 °F 45.0 °F 96% 30.21 in 0.5 mi North 4.6 mph - 0.00 in Fog Fog
9:53 PM 45.0 °F 43.5 °F 44.1 °F 97% 30.19 in 1.2 mi NNE 3.5 mph - 0.02 in Rain Light Rain
10:53 PM 45.0 °F 43.5 °F 44.1 °F 97% 30.17 in 1.5 mi NNE 3.5 mph - 0.00 in   Overcast
11:09 PM 44.6 °F - 44.6 °F 100% 30.15 in 2.5 mi Calm Calm - N/A   Overcast
11:32 PM 44.6 °F 41.4 °F 44.6 °F 100% 30.13 in 1.2 mi North 5.8 mph - N/A   Overcast
11:43 PM 44.6 °F 41.4 °F 44.6 °F 100% 30.13 in 0.8 mi North 5.8 mph - N/A   Overcast
11:53 PM 45.0 °F 41.8 °F 44.1 °F 97% 30.14 in 1.5 mi North 5.8 mph - N/A   Overcast